Wind_Speed
28 27 27 26 26 26 26 27 28 28 28 28 28 28 28 28 29 30 32 33 34 35 36 38 39 39 40 40 40 40 40 41 41 41 41 42 42 42 42 42 42 42 42
29 29 28 28 28 28 28 29 30 29 30 30 29 29 30 31 32 33 34 35 37 38 39 40 41 41 42 42 43 43 43 43 44 44 44 45 45 46 46 46 47 47 47
30 29 29 29 29 29 30 31 31 31 31 31 31 31 32 33 34 36 37 38 40 41 42 42 43 43 44 44 45 45 46 46 47 48 49 49 50 50 50 51 51 52 52
31 30 30 31 31 31 32 32 32 33 33 33 33 34 34 35 37 38 40 41 43 43 44 44 45 46 46 47 48 49 50 50 51 52 54 55 55 56 56 57 57 58 58
32 31 31 32 32 32 33 33 34 35 35 35 35 36 37 39 40 41 42 44 45 46 47 47 48 48 49 50 52 53 54 55 56 57 58 59 60 61 62 62 63 63 64
33 33 33 33 34 34 34 35 35 36 36 36 37 39 40 42 43 44 46 47 48 48 49 50 51 52 53 54 56 57 58 59 60 61 62 63 64 65 66 66 67 67 68
34 34 34 35 35 36 36 37 38 38 38 39 40 42 43 44 46 47 49 50 51 51 52 53 55 56 57 58 60 61 62 63 64 65 66 67 67 68 69 69 70 70 71
35 36 36 36 37 38 38 39 40 40 40 41 42 44 46 47 48 50 51 52 53 54 55 57 59 60 61 62 63 64 65 66 67 68 69 70 70 71 72 72 73 73 74
37 38 38 38 39 40 41 42 42 42 43 44 45 46 48 49 50 50 53 54 56 57 59 60 62 64 65 66 67 67 68 69 70 71 72 73 74 75 76 77 78 78 79
38 38 39 40 41 42 43 43 44 45 45 46 47 49 50 52 53 52 52 54 56 58 60 62 64 66 67 69 70 71 71 72 74 75 76 77 78 80 81 83 84 85 86
38 39 40 41 42 43 44 45 45 46 47 49 50 51 52 54 55 57 55 56 57 59 61 63 65 67 69 70 71 72 74 75 76 78 80 82 83 85 88 90 92 93 95
39 40 41 42 43 44 45 46 47 48 49 51 52 54 55 56 58 59 60 60 61 61 62 63 65 67 70 71 73 74 76 78 80 82 85 88 90 93 96 98 101 103 105
39 40 42 42 43 44 45 46 47 49 51 52 54 56 57 59 61 63 65 66 66 66 66 67 67 69 70 72 74 76 79 82 85 89 92 96 99 102 105 108 111 113 115
40 41 42 43 44 45 46 47 48 50 52 54 56 58 60 61 63 65 67 69 70 69 70 71 73 74 75 77 80 83 86 90 94 98 101 105 107 109 109 108 108 108 109
40 41 42 43 44 45 46 47 49 52 54 56 58 60 62 64 66 68 69 71 72 73 72 73 75 78 81 85 89 92 96 100 104 106 107 106 103 98 93 88 85 83 83
40 41 42 43 44 44 46 48 51 53 56 58 60 62 65 66 68 69 71 72 73 75 75 76 79 83 88 93 98 102 105 107 106 103 99 92 84 76 70 65 63 61 61
40 41 42 42 43 45 47 50 53 55 58 60 62 64 66 68 69 70 72 73 74 76 78 79 84 89 95 100 104 106 105 101 94 86 79 71 65 59 55 52 50 49 49
40 41 41 42 44 46 49 52 55 57 60 62 64 66 67 69 70 72 73 75 77 80 84 86 90 96 100 103 102 98 92 84 75 67 62 57 52 49 46 45 44 44 45
40 40 41 43 45 48 51 54 56 59 61 64 65 67 68 69 71 73 75 78 81 86 90 94 96 99 100 98 92 83 73 65 59 55 51 47 45 43 42 42 42 42 43
39 40 42 44 47 50 53 55 58 60 63 64 66 67 69 70 72 75 78 83 87 92 97 99 99 97 92 84 75 64 56 51 48 46 44 43 42 41 42 42 42 41 40
39 41 43 46 49 52 55 57 60 61 63 65 66 68 70 72 75 79 84 89 94 98 100 100 95 87 76 65 56 50 44 41 40 41 39 39 40 40 40 39 38 37 35
40 42 45 48 51 54 56 59 61 62 64 65 67 69 72 75 80 84 90 95 98 99 97 92 83 71 60 52 45 40 38 35 35 37 36 36 38 37 36 35 32 30 28
41 44 47 50 53 55 58 60 61 63 64 67 69 72 76 80 85 90 94 96 95 92 86 77 66 56 49 43 38 35 34 34 34 35 33 32 33 32 31 28 25 24 24
43 46 49 51 54 56 58 60 61 63 65 68 72 76 81 86 91 94 94 92 87 80 71 62 54 47 43 39 36 34 32 31 31 34 33 30 29 28 26 24 23 22 22
44 47 50 52 54 57 58 60 62 64 67 71 76 81 86 90 93 93 90 84 75 65 56 50 45 42 39 37 36 33 32 31 29 30 31 29 27 25 24 23 22 22 22
45 48 50 53 55 56 58 60 63 67 70 75 81 86 90 92 91 87 81 71 60 51 45 42 40 39 37 37 36 35 33 31 29 27 27 26 25 22 20 22 21 22 24
Wind_Direction
255 256 257 260 264 269 275 279 282 285 288 291 291 291 290 290 290 290 290 291 291 292 292 292 292 292 291 290 289 288 286 284 281 279 277 275 273 271 270 268 267 266 264
256 256 257 260 263 268 273 277 280 283 286 289 290 290 290 290 290 291 292 292 293 294 294 293 292 292 290 289 288 287 285 283 282 280 277 275 274 272 271 269 268 266 265
257 255 257 259 262 267 272 276 279 283 286 288 289 289 289 290 291 292 293 293 294 294 294 293 293 291 290 288 287 285 283 281 279 278 276 274 273 271 270 269 268 267 266
257 255 257 259 262 267 271 276 280 284 286 287 287 288 289 290 291 292 293 293 294 293 293 292 292 290 288 286 285 283 281 279 278 276 275 274 273 272 270 269 268 267 266
257 257 258 260 263 267 272 276 281 285 287 287 287 289 290 290 291 292 292 293 293 293 292 291 290 289 287 285 283 282 280 279 278 277 276 275 274 273 272 271 270 269 267
257 257 258 260 264 268 273 277 282 285 287 288 289 290 291 292 292 293 293 293 293 292 292 291 289 288 286 285 283 282 281 281 280 279 278 277 276 275 273 272 271 270 268
258 257 258 261 265 269 274 278 281 285 287 289 289 290 291 292 293 294 294 294 293 293 292 291 290 288 287 286 285 284 283 282 282 281 280 279 278 276 275 274 272 271 270
259 259 259 263 267 271 275 278 281 284 287 288 289 290 292 293 294 295 295 295 294 293 293 292 291 290 289 288 287 287 286 285 284 283 282 281 279 278 276 275 273 272 270
259 260 261 264 269 272 276 278 281 284 286 288 289 290 291 292 293 295 296 296 295 295 294 293 293 292 291 291 290 289 288 287 286 285 284 283 281 280 278 276 274 272 271
260 261 264 267 270 274 277 279 282 285 287 288 290 291 292 294 294 294 293 293 293 294 294 293 293 293 292 291 291 290 289 288 287 286 285 284 282 281 279 277 275 273 272
261 263 266 269 272 275 278 281 284 286 288 289 291 293 294 295 296 296 295 294 294 293 293 293 292 292 292 291 291 290 289 288 287 286 285 283 282 280 279 277 275 274 272
262 264 267 270 274 277 279 282 285 287 289 291 293 294 296 297 297 297 296 296 295 295 294 294 293 293 292 292 291 291 290 289 287 286 285 283 282 280 279 277 276 274 272
263 266 269 272 275 278 281 284 286 288 290 292 294 296 297 298 298 298 298 297 297 297 297 296 295 294 293 292 291 291 290 289 288 288 286 285 284 282 280 278 276 274 272
265 268 271 274 277 281 283 286 288 290 292 294 296 297 298 299 299 299 299 299 299 299 299 299 298 297 296 295 294 294 293 293 292 291 289 288 286 285 283 281 279 276 274
267 270 274 277 280 283 285 288 290 292 294 296 297 298 299 300 300 300 301 301 301 301 301 301 300 300 299 299 298 298 298 297 295 294 292 291 290 288 286 284 282 279 277
269 273 276 279 282 285 287 290 292 294 296 297 299 300 301 301 301 302 302 303 303 303 303 303 302 302 302 302 301 301 300 299 297 296 295 294 292 291 289 287 285 283 280
273 276 279 282 284 287 289 292 294 296 297 299 300 301 302 302 303 303 304 304 304 304 304 304 304 304 303 303 302 302 301 299 298 297 295 295 294 293 291 289 287 285 283
276 279 281 284 286 289 292 294 296 297 299 300 301 302 303 303 304 305 305 305 305 305 305 305 305 305 304 303 303 302 300 299 298 297 296 296 295 294 293 291 289 288 286
278 281 283 286 289 291 294 295 297 299 300 301 302 303 304 305 305 306 306 306 306 306 306 306 306 306 305 304 303 302 301 299 298 298 298 297 297 296 295 294 292 291 289
279 282 285 288 291 293 295 297 299 300 302 303 304 305 306 306 306 307 307 307 307 307 307 307 307 307 306 305 304 302 301 300 299 298 299 300 299 299 298 298 297 295 293
281 284 288 290 293 295 297 299 301 302 303 304 305 306 307 307 308 308 308 308 308 308 308 309 309 308 307 306 304 303 301 300 300 299 302 302 301 301 301 301 300 299 298
283 287 290 292 295 297 299 301 302 304 304 305 306 307 307 308 308 308 309 309 309 310 310 310 310 309 308 307 305 303 302 301 300 300 304 304 303 303 302 303 302 302 301
286 290 292 295 297 299 301 302 304 305 306 307 307 308 308 308 309 309 309 310 311 310 310 310 309 309 308 307 305 304 304 305 304 303 305 306 305 305 304 305 306 306 305
289 292 294 297 299 301 302 304 305 306 307 308 309 309 309 310 310 310 311 311 311 310 310 309 309 309 308 307 306 306 306 306 306 306 308 309 308 308 306 306 307 307 307
292 295 297 299 301 302 304 305 306 308 309 309 309 310 310 310 311 311 312 312 312 311 310 309 309 309 309 309 308 308 308 308 307 307 308 310 310 310 308 308 309 310 311
295 298 299 301 302 304 305 307 308 309 310 310 311 311 312 312 312 313 313 314 313 311 309 309 309 310 310 310 310 309 308 308 308 306 305 307 307 308 306 308 310 312 315
Height
5803 5804 5803 5803 5802 5802 5801 5799 5798 5796 5795 5793 5791 5789 5787 5784 5782 5780 5779 5776 5774 5772 5770 5768 5766 5763 5761 5759 5757 5756 5754 5752 5751 5750 5749 5748 5748 5747 5747 5746 5746 5746 5746
5798 5798 5798 5797 5796 5795 5794 5793 5792 5791 5789 5787 5785 5782 5780 5778 5776 5774 5771 5769 5767 5764 5762 5759 5757 5754 5752 5750 5748 5746 5744 5743 5741 5740 5738 5737 5737 5736 5736 5735 5735 5735 5735
5791 5792 5791 5791 5790 5789 5788 5787 5785 5784 5782 5780 5778 5776 5774 5771 5769 5766 5763 5761 5758 5756 5753 5750 5748 5745 5743 5740 5738 5736 5734 5732 5731 5729 5727 5726 5725 5724 5723 5723 5722 5722 5722
5785 5785 5785 5784 5783 5782 5781 5780 5779 5777 5775 5773 5771 5769 5767 5764 5761 5758 5755 5752 5749 5746 5744 5741 5738 5735 5733 5730 5728 5725 5723 5721 5719 5717 5715 5713 5712 5711 5710 5709 5708 5708 5708
5778 5778 5778 5777 5776 5775 5774 5773 5772 5770 5767 5765 5763 5761 5758 5756 5753 5750 5746 5743 5740 5736 5733 5730 5728 5725 5722 5719 5716 5713 5710 5708 5705 5703 5701 5699 5697 5696 5694 5693 5692 5692 5692
5771 5771 5771 5770 5769 5768 5767 5766 5764 5762 5760 5757 5755 5752 5749 5746 5743 5740 5736 5733 5729 5725 5722 5719 5716 5713 5709 5706 5703 5699 5696 5693 5690 5688 5685 5683 5681 5679 5677 5676 5675 5674 5674
5764 5764 5764 5763 5762 5761 5760 5758 5756 5754 5752 5749 5746 5743 5740 5737 5733 5729 5726 5722 5718 5714 5710 5706 5702 5699 5696 5692 5688 5684 5681 5677 5674 5671 5668 5665 5663 5661 5659 5657 5656 5655 5654
5757 5757 5756 5755 5754 5753 5752 5750 5748 5746 5743 5740 5737 5734 5730 5728 5723 5719 5714 5710 5706 5702 5697 5693 5688 5684 5680 5676 5672 5668 5664 5660 5656 5652 5649 5646 5643 5641 5638 5636 5635 5633 5632
5749 5749 5748 5748 5746 5745 5744 5742 5740 5737 5734 5731 5728 5725 5721 5717 5714 5710 5704 5698 5693 5688 5683 5678 5673 5667 5663 5658 5654 5650 5646 5641 5637 5633 5629 5625 5622 5619 5616 5613 5611 5610 5608
5742 5741 5740 5739 5738 5737 5735 5733 5730 5727 5724 5721 5718 5714 5710 5706 5702 5700 5696 5689 5683 5677 5671 5664 5658 5652 5646 5641 5637 5632 5627 5622 5617 5612 5608 5603 5599 5596 5592 5589 5586 5583 5581
5734 5733 5732 5731 5729 5728 5726 5723 5720 5717 5714 5710 5706 5703 5698 5694 5689 5685 5682 5678 5672 5666 5659 5652 5644 5637 5630 5624 5619 5614 5608 5603 5597 5592 5586 5581 5576 5571 5566 5561 5558 5554 5551
5726 5725 5724 5722 5721 5719 5716 5714 5710 5707 5703 5699 5695 5690 5686 5681 5676 5670 5666 5662 5657 5652 5644 5637 5629 5621 5613 5607 5601 5595 5588 5582 5575 5569 5562 5555 5549 5542 5536 5531 5525 5521 5517
5718 5717 5715 5713 5711 5709 5706 5703 5700 5696 5692 5688 5683 5678 5673 5668 5662 5656 5650 5645 5640 5634 5627 5620 5612 5604 5596 5588 5581 5574 5567 5559 5551 5542 5534 5525 5516 5508 5500 5493 5486 5481 5476
5709 5708 5706 5704 5702 5699 5696 5693 5689 5685 5681 5676 5671 5665 5660 5654 5647 5641 5634 5627 5622 5617 5608 5599 5590 5581 5572 5564 5557 5548 5540 5531 5521 5510 5499 5489 5478 5468 5458 5449 5441 5434 5429
5701 5699 5698 5695 5693 5690 5686 5683 5678 5674 5669 5664 5658 5652 5646 5639 5632 5625 5617 5610 5602 5597 5591 5581 5569 5559 5547 5537 5527 5517 5507 5496 5484 5471 5460 5449 5438 5427 5418 5409 5402 5395 5389
5692 5691 5688 5686 5683 5680 5676 5672 5667 5662 5657 5651 5645 5639 5632 5624 5617 5609 5601 5592 5583 5575 5570 5562 5549 5536 5523 5511 5498 5485 5473 5460 5447 5434 5422 5412 5403 5395 5388 5381 5375 5369 5364
5684 5682 5679 5677 5673 5670 5666 5661 5656 5651 5645 5639 5632 5625 5617 5609 5600 5592 5583 5575 5565 5556 5549 5543 5528 5515 5500 5485 5471 5456 5440 5426 5415 5404 5393 5386 5379 5373 5367 5362 5356 5351 5346
5675 5673 5670 5667 5663 5659 5655 5650 5645 5639 5632 5625 5618 5610 5602 5593 5584 5575 5565 5556 5546 5536 5526 5520 5509 5492 5476 5458 5442 5428 5412 5398 5389 5381 5373 5367 5361 5356 5351 5346 5341 5336 5331
5666 5664 5661 5657 5653 5649 5644 5639 5633 5626 5619 5612 5603 5595 5586 5577 5567 5558 5548 5537 5526 5515 5503 5493 5483 5467 5450 5431 5416 5403 5390 5378 5370 5363 5358 5353 5348 5342 5337 5332 5327 5322 5317
5658 5655 5651 5647 5643 5638 5633 5627 5621 5613 5605 5597 5588 5579 5570 5560 5550 5540 5530 5518 5506 5493 5479 5466 5454 5440 5423 5406 5392 5382 5374 5364 5356 5350 5346 5341 5335 5330 5324 5319 5313 5308 5303
5649 5645 5642 5637 5632 5627 5621 5615 5608 5600 5591 5582 5573 5564 5554 5544 5533 5522 5510 5497 5482 5467 5452 5438 5425 5412 5399 5386 5376 5367 5360 5354 5346 5339 5336 5330 5324 5319 5313 5307 5301 5296 5291
5640 5636 5632 5627 5622 5616 5609 5602 5594 5586 5577 5568 5558 5549 5539 5528 5516 5504 5490 5474 5457 5441 5426 5412 5400 5388 5379 5370 5363 5356 5349 5344 5338 5332 5326 5321 5314 5309 5302 5297 5292 5287 5281
5630 5626 5622 5616 5610 5604 5596 5589 5580 5572 5562 5553 5543 5533 5522 5510 5497 5484 5469 5453 5435 5416 5401 5389 5381 5372 5365 5358 5352 5347 5340 5334 5328 5322 5317 5313 5306 5300 5294 5289 5284 5279 5274
5621 5616 5611 5605 5598 5591 5583 5575 5567 5558 5548 5538 5527 5516 5504 5490 5475 5461 5447 5432 5415 5398 5385 5374 5366 5359 5353 5347 5342 5337 5331 5326 5320 5312 5307 5303 5298 5292 5286 5282 5277 5273 5268
5611 5606 5600 5593 5586 5578 5570 5562 5553 5544 5535 5524 5512 5498 5484 5470 5454 5439 5425 5411 5396 5382 5370 5361 5355 5349 5343 5337 5332 5327 5322 5317 5313 5306 5299 5295 5289 5285 5279 5275 5271 5266 5261
5601 5595 5589 5582 5574 5566 5558 5549 5539 5530 5521 5509 5495 5479 5463 5447 5431 5415 5402 5391 5380 5370 5361 5353 5346 5340 5334 5328 5322 5317 5312 5308 5304 5299 5293 5288 5282 5277 5274 5269 5265 5261 5256